AO-07 1 07530U 74089B 20317.18063368 -.00000026 00000 0 11839-3 0 9994 2 07530 101.8225 286.2020 0012506 79.3364 292.7315 12.53646063104507 UO-11 1 14781U 84021B 20317.30503191 .00000140 00000 0 23197-4 0 9991 2 14781 97.5902 321.9239 0009957 77.8472 282.3857 14.83208937953747 LO-19 1 20442U 90005G 20317.12335382 .00000015 00000 0 22068-4 0 9993 2 20442 98.7104 264.9858 0012879 81.0300 279.2340 14.32966119609705 HUBBLE 1 20580U 90037B 20317.01807370 .00000582 00000 0 24387-4 0 9995 2 20580 28.4705 63.6064 0002454 239.6706 283.4381 15.09471281478260 MET-2/21 1 22782U 93055A 20317.19014524 .00000026 00000 0 97979-5 0 9995 2 22782 82.5462 116.3501 0022468 177.8554 355.2935 13.83829910373476 AO-27 1 22825U 93061C 20317.27903345 .00000013 00000 0 22967-4 0 9997 2 22825 98.9259 323.4737 0007636 311.8086 48.2443 14.30097206414940 IO-26 1 22826U 93061D 20317.30068827 .00000017 00000 0 24535-4 0 9996 2 22826 98.9200 323.4264 0008038 297.9639 62.0729 14.30434136415182 FO-29 1 24278U 96046B 20317.27712742 -.00000023 00000 0 14357-4 0 9992 2 24278 98.5891 47.7981 0350184 352.3010 7.2837 13.53100351196876 NOAA-15 1 25338U 98030A 20317.34545142 .00000046 00000 0 37747-4 0 9993 2 25338 98.7056 341.5632 0010292 187.0519 173.0517 14.25998062170050 GO-32 1 25397U 98043D 20317.10297220 -.00000013 00000 0 13625-4 0 9991 2 25397 98.7437 257.5663 0001621 34.5473 325.5811 14.23694308160569 ISS 1 25544U 98067A 20317.25363600 .00001751 00000 0 39388-4 0 9996 2 25544 51.6454 335.8126 0001878 97.2546 262.8656 15.49413747254979 NO-44 1 26931U 01043C 20317.17350038 .00000002 00000 0 32453-4 0 9991 2 26931 67.0495 121.1812 0006902 275.4782 84.5532 14.30594175998206 SO-50 1 27607U 02058C 20317.30999473 .00000035 00000 0 25384-4 0 9997 2 27607 64.5552 282.3040 0031707 122.5615 237.8557 14.75676768962539 CO-55 1 27844U 03031E 20317.02803660 .00000085 00000 0 57937-4 0 9997 2 27844 98.6827 322.5410 0009711 354.7132 5.3941 14.22267111901073 CO-57 1 27848U 03031J 20316.95698385 .00000065 00000 0 49474-4 0 9993 2 27848 98.6890 323.0377 0009843 7.6853 352.4473 14.21850158900900 RS-22 1 27939U 03042A 20317.28788828 .00000135 00000 0 32880-4 0 9996 2 27939 98.1130 90.3343 0011813 243.6887 204.2690 14.66904199915544 NOAA-18 1 28654U 05018A 20317.41841584 .00000086 00000 0 70735-4 0 9996 2 28654 99.0261 15.0996 0014544 170.9199 189.2238 14.12554609797809 CO-58 1 28895U 05043F 20316.58547660 .00000192 00000 0 45764-4 0 9998 2 28895 98.0309 89.0059 0017018 172.7913 187.3537 14.63821462802136 Falconsat-3 1 30776U 07006E 20317.28159217 .00004717 00000 0 12184-3 0 9991 2 30776 35.4352 53.7503 0001814 85.3003 274.7932 15.38610324759618 CO-65 1 32785U 08021C 20317.28944162 .00000382 00000 0 46648-4 0 9999 2 32785 97.5881 298.9198 0013262 9.9739 350.1739 14.88551262679868 AAUSAT2 1 32788U 08021F 20317.22371910 .00001123 00000 0 10700-3 0 9994 2 32788 97.4963 315.1999 0010067 281.4920 78.5171 14.95223848681397 DO-64 1 32789U 08021G 20317.38270342 .00002220 00000 0 14761-3 0 9999 2 32789 97.4030 354.9163 0012538 161.7406 198.4275 15.08102345684103 CO-66 1 32791U 08021J 20317.23489971 .00000532 00000 0 58874-4 0 9994 2 32791 97.5525 304.9527 0012610 336.7067 23.3579 14.91161916680405 RS-30 1 32953U 08025A 20317.40599211 .00000028 00000 0 12906-3 0 9991 2 32953 82.5043 185.9102 0019936 89.6012 270.7352 12.43098798566011 PRISM 1 33493U 09002B 20317.29521552 .00000510 00000 0 49575-4 0 9996 2 33493 98.1604 263.8352 0013697 289.4390 70.5350 14.97233961641828 NOAA-19 1 33591U 09005A 20317.29145061 .00000018 00000 0 34955-4 0 9994 2 33591 99.1955 326.4891 0014345 25.1015 335.0850 14.12438331606001 TISAT-1 1 36799U 10035E 20317.03804821 .00000729 00000 0 78999-4 0 9995 2 36799 98.2023 133.0994 0011723 201.1697 158.9036 14.91478187560923 JUGNU 1 37839U 11058B 20317.13796757 .00000314 00000 0 25106-4 0 9998 2 37839 19.9603 107.1328 0018852 216.5761 299.4280 14.12694299469699 SRMSAT 1 37841U 11058D 20317.28649890 .00000280 00000 0 86895-5 0 9997 2 37841 19.9703 173.6241 0011886 68.2704 87.3551 14.10678011469039 AO-71 1 37854U 11061E 20317.17732946 .00001323 00000 0 73374-4 0 9994 2 37854 101.7147 124.8078 0157169 342.3855 17.1944 15.07687913493738 HRBE 1 37855U 11061F 20317.21867718 .00001258 00000 0 69087-4 0 9999 2 37855 101.7277 121.9515 0169668 356.2883 3.7059 15.06721171493450 HORYU-2 1 38340U 12025D 20317.41378264 .00000244 00000 0 43399-4 0 9997 2 38340 98.2632 14.3979 0010215 290.6045 69.4068 14.75916772446374 RS-40 1 38735U 12041C 20317.27917371 .00000002 00000 0 -57489-4 0 9993 2 38735 82.4742 268.4730 0016326 196.3418 163.7137 12.42580472376172 BEESAT-3 1 39135U 13015F 20316.98105377 .00001496 00000 0 81385-4 0 9991 2 39135 64.8653 184.8581 0024092 218.0290 141.9136 15.18512072417615 BEESAT-2 1 39136U 13015G 20317.08757922 .00001400 00000 0 77621-4 0 9996 2 39136 64.8755 190.0333 0034376 265.0427 94.6774 15.17922417417522 ZACUBE-1 1 39417U 13066B 20317.29802824 .00000304 00000 0 44197-4 0 9993 2 39417 97.5749 307.1714 0059441 151.8357 208.6094 14.81350997376926 TRITON-1 1 39427U 13066M 20317.11119174 .00000389 00000 0 69867-4 0 9998 2 39427 97.7461 269.9846 0112889 326.4868 32.9229 14.68085788373321 GOMX-1 1 39430U 13066Q 20317.28028930 .00000334 00000 0 68757-4 0 9996 2 39430 97.8016 246.9435 0152247 78.9517 282.8764 14.59464332371170 LO-74 1 39440U 13066AA 20317.20379960 .00000266 00000 0 43907-4 0 9995 2 39440 97.6487 291.6743 0078996 219.8053 139.7347 14.76088771374379 AO-73 1 39444U 13066AE 20317.21004310 .00000375 00000 0 51998-4 0 9994 2 39444 97.5676 309.3912 0058717 143.6667 216.8556 14.82220211375252 SPROUT 1 39770U 14029E 20317.30473790 .00001088 00000 0 12469-3 0 9999 2 39770 97.9081 63.0441 0008998 193.8103 166.2868 14.87963799351042 DUCHIFAT-1 1 40021U 14033M 20317.26128108 .00000503 00000 0 56596-4 0 9991 2 40021 97.9516 249.4608 0013241 154.2970 205.8909 14.91038050347916 NANOSATCBR1 1 40024U 14033Q 20317.30023962 .00000535 00000 0 61121-4 0 9996 2 40024 97.9339 245.3813 0012463 158.8682 201.3053 14.90186946347255 DTUSAT-2 1 40030U 14033W 20317.28347826 .00000387 00000 0 47336-4 0 9995 2 40030 97.9051 238.7190 0012105 162.6061 197.5573 14.88800561347003 EO-80 1 40032U 14033Y 20317.30728829 .00000361 00000 0 44610-4 0 9990 2 40032 97.9060 238.7463 0012057 163.2487 196.9130 14.88752998346981 ANTELSAT 1 40034U 14033AA 20317.15569482 .00000305 00000 0 52357-4 0 9998 2 40034 97.6955 165.6419 0057312 240.8539 118.6927 14.74328695343648 VELOX-1 1 40057U 14034E 20317.29747791 .00000414 00000 0 65064-4 0 9990 2 40057 98.3016 98.5101 0011482 37.9609 322.2408 14.77970886343467 DAURIA DX 1 1 40071U 14037C 20317.30499298 .00000175 00000 0 29925-4 0 9997 2 40071 98.4614 143.9355 0009029 30.7172 329.4566 14.81410255343057 HODOYOSHI-1 1 40299U 14070B 20317.48675239 .00000979 00000 0 42893-4 0 9997 2 40299 97.3109 30.7016 0013941 39.8321 320.3937 15.24264268334339 CHUBUSAT-1 1 40300U 14070C 20317.46035955 .00001045 00000 0 47495-4 0 9991 2 40300 97.2741 22.0825 0021018 55.2873 305.0340 15.22721409333962 QSAT-EOS 1 40301U 14070D 20317.45506011 .00002763 00000 0 10460-3 0 9996 2 40301 97.2807 28.4503 0025452 27.3690 332.8884 15.27466330334452 FIREBIRD FU3 1 40377U 15003B 20317.21561891 .00004918 00000 0 18690-3 0 9994 2 40377 99.0856 47.6100 0122173 179.9285 180.1984 15.20710222319753 FIREBIRD FU4 1 40378U 15003C 20317.26387894 .00005337 00000 0 20216-3 0 9992 2 40378 99.0860 47.7781 0122327 179.6327 180.5016 15.20736878319766 GRIFEX 1 40379U 15003D 20317.26863015 .00002982 00000 0 12597-3 0 9993 2 40379 99.0891 38.7997 0131215 207.5526 151.8706 15.16858902319246 NO-84 1 40654U 15025D 20316.62762897 .00020277 00000-0 20984-3 0 19 2 40654 54.9838 340.5262 0102580 209.9292 149.5857 15.58362278307892 DEORBITSAIL 1 40719U 15032E 20317.45272246 .00000529 00000 0 81825-4 0 9990 2 40719 97.8501 202.2949 0017641 88.8964 271.4268 14.77120852287940 NUDT-PHONESAT 1 40900U 15049B 20317.26422799 .00003529 00000 0 14513-3 0 9991 2 40900 97.4289 326.9790 0012392 175.9965 184.1374 15.24758816285717 XW-2A 1 40903U 15049E 20317.31569588 .00003259 00000 0 73882-4 0 9993 2 40903 97.2699 6.2661 0014652 86.7093 273.5831 15.43720101289284 XW-2C 1 40906U 15049H 20317.26382218 .00000986 00000 0 54320-4 0 9993 2 40906 97.4822 316.4908 0013618 216.2544 143.7767 15.16268964284655 XW-2D 1 40907U 15049J 20317.29979729 .00001124 00000 0 61000-4 0 9994 2 40907 97.4808 316.2593 0013054 212.3824 147.6609 15.16527456284685 LILACSAT-2 1 40908U 15049K 20317.26488115 .00000572 00000 0 34918-4 0 9990 2 40908 97.4978 314.3751 0014576 226.7995 133.2020 15.14159652284367 XW-2E 1 40909U 15049L 20317.26071090 .00001668 00000 0 83459-4 0 9992 2 40909 97.4664 319.9340 0012674 200.7900 159.2821 15.18751650284963 XW-2F 1 40910U 15049M 20317.25908739 .00001653 00000 0 83862-4 0 9994 2 40910 97.4715 319.0105 0013826 200.4323 159.6360 15.18258587284882 XW-2B 1 40911U 15049N 20317.29110125 .00001092 00000 0 59476-4 0 9994 2 40911 97.4816 316.9492 0012952 213.5124 146.5291 15.16450471284571 DCBB 1 40912U 15049P 20317.28246963 .00001858 00000 0 87534-4 0 9990 2 40912 97.4487 323.3110 0014649 175.5934 184.5433 15.20692329285189 TW-1C 1 40926U 15051B 20317.42002222 .00065857 00000 0 44434-3 0 9992 2 40926 97.0637 10.7382 0003133 228.7466 131.3530 15.74905081290233 TW-1A 1 40928U 15051D 20317.31149372 .00005082 00000 0 11497-3 0 9997 2 40928 97.0983 341.5242 0010591 18.7352 341.4284 15.43529527288179 IO-86 1 40931U 15052B 20315.71190133 .00000708 00000 0 94491-5 0 9992 2 40931 6.0011 12.2687 0013234 190.3823 169.6032 14.76649047276888 LQSat 1 40958U 15057A 20317.12434065 .00000033 00000 0 12658-4 0 9993 2 40958 97.8355 15.5514 0018941 39.1165 321.1409 14.73138128274252 ATHENOXAT-1 1 41168U 15077C 20316.49708235 .00002745 00000 0 10712-3 0 9991 2 41168 14.9882 62.2966 0011270 15.9967 344.0709 15.14745847271613 ChubuSat-2 1 41338U 16012B 20317.19895689 .00000458 00000 0 28806-4 0 9991 2 41338 31.0023 127.2281 0013558 141.0266 219.1348 15.00364544259944 ChubuSat-3 1 41339U 16012C 20317.17764222 .00000448 00000 0 27885-4 0 9993 2 41339 31.0087 124.8212 0013376 148.7019 211.4415 15.00524194259938 Horyu-4 1 41340U 16012D 20317.14170626 .00000751 00000 0 49834-4 0 9996 2 41340 31.0045 111.1859 0013744 175.5753 184.5005 15.01616407260096 OUFTI-1 1 41458U 16025C 20317.27769443 .00002474 00000 0 12436-3 0 9996 2 41458 98.1193 75.8377 0163077 72.0354 289.8572 15.07421731249745 e-st@r-II 1 41459U 16025D 20317.30143870 .00001754 00000 0 90193-4 0 9998 2 41459 98.1176 75.1516 0164686 74.2871 287.6452 15.06939065249702 AAUSAT4 1 41460U 16025E 20317.27011964 .00002740 00000 0 13391-3 0 9994 2 41460 98.1181 78.0032 0152872 61.4580 300.1939 15.09471084249935 LO-87 1 41557U 16033B 20317.49292551 .00002241 00000 0 83604-4 0 9998 2 41557 97.4017 46.7658 0011784 285.6776 74.3164 15.28419572248384 NuSat2 1 41558U 16033C 20317.26469272 .00002452 00000 0 85807-4 0 9991 2 41558 97.4089 49.4138 0010798 281.8738 78.1292 15.30447210248496 Lapan A3 1 41603U 16040E 20317.39219838 .00000254 00000 0 14892-4 0 9999 2 41603 97.2896 6.1455 0014660 49.0669 311.1833 15.19899098243614 Swayam 1 41607U 16040J 20317.15378078 .00002328 00000 0 96759-4 0 9995 2 41607 97.3006 12.9299 0013703 32.7908 327.4177 15.24698842243920 Pratham 1 41783U 16059A 20317.40056993 .00000088 00000 0 26127-4 0 9990 2 41783 97.9981 8.5551 0032977 208.2021 151.7396 14.63085926220511 AlSat 1N 1 41789U 16059G 20317.22171895 .00000117 00000 0 30882-4 0 9991 2 41789 98.0018 11.5504 0028036 194.8105 165.2280 14.64357343220659 ScatSat 1 41790U 16059H 20317.39235523 .00000038 00000 0 21127-4 0 9994 2 41790 98.3989 354.1022 0005236 170.6470 189.4823 14.50793502218672 TY-1 1 41844U 16066D 20317.25357555 .00001410 00000 0 59050-4 0 9998 2 41844 97.4035 323.7907 0014848 177.0142 183.1187 15.25121654222792 Pegasus-1 1 41846U 16066F 20317.37784401 .00000434 00000 0 75132-4 0 9991 2 41846 98.6436 8.8517 0367208 152.4638 209.6543 14.37860115210227 CAS-2T 1 41847U 16066G 20317.40614615 .00000130 00000 0 29283-4 0 9994 2 41847 98.6355 9.2731 0366213 147.8195 214.5925 14.38109819210689 EO-88 1 42017U 17008BX 20317.21756366 .00002703 00000 0 10479-3 0 9994 2 42017 97.3453 22.5324 0006986 147.1091 213.0584 15.26973628208098 CAS-4B 1 42759U 17034B 20317.25804012 .00000536 00000 0 45842-4 0 9997 2 42759 43.0179 294.9206 0011221 245.1392 114.8287 15.09944154188312 CAS-4A 1 42761U 17034D 20317.26075390 .00000537 00000 0 45824-4 0 9991 2 42761 43.0181 294.1075 0011647 246.0220 113.9406 15.10023723188311 UCLSat 1 42765U 17036A 20317.11758985 .00002015 00000 0 86228-4 0 9995 2 42765 97.2832 7.2703 0010054 218.6830 141.3688 15.23901297189068 NIUSat 1 42766U 17036B 20317.41070851 .00001568 00000 0 71487-4 0 9991 2 42766 97.2823 4.6142 0014329 214.7895 145.2406 15.22010096188195 LituanicaSAT 2 1 42768U 17036D 20317.09696633 .00003467 00000 0 14273-3 0 9998 2 42768 97.2897 7.4828 0013599 208.9630 151.0855 15.24695953188332 Aalto 1 1 42775U 17036L 20317.38464394 .00001265 00000 0 58143-4 0 9994 2 42775 97.2800 4.9149 0012764 213.4881 146.5550 15.22082977188171 URSA MAIOR 1 42776U 17036M 20317.09231456 .00001346 00000 0 61306-4 0 9999 2 42776 97.2812 4.9829 0012564 214.0802 145.9629 15.22289490188144 Max Valier Sat 1 42778U 17036P 20317.39403211 .00001535 00000 0 68318-4 0 9994 2 42778 97.2872 6.8099 0011142 214.9144 145.1363 15.22908618188249 Pegasus 1 42784U 17036V 20317.10812712 .00001801 00000 0 78150-4 0 9991 2 42784 97.2832 6.8894 0010599 220.6376 139.4071 15.23564125188256 NUDATSat 1 42787U 17036Y 20317.42478614 .00002966 00000 0 12134-3 0 9990 2 42787 97.2869 8.9548 0010110 213.0198 147.0410 15.25054160188241 SUCHAI 1 1 42788U 17036Z 20317.40463934 .00002358 00000 0 99575-4 0 9998 2 42788 97.2847 7.9100 0010224 216.5839 143.4701 15.24182748188412 SKCUBE 1 42789U 17036AA 20317.40158361 .00002087 00000 0 88963-4 0 9992 2 42789 97.2835 7.7107 0010087 217.2898 142.7640 15.23995496188320 VZLUSAT 1 1 42790U 17036AB 20317.41550240 .00002889 00000 0 11839-3 0 9994 2 42790 97.2870 8.9378 0009668 213.2587 146.8045 15.25031151188390 VENTA 1 1 42791U 17036AC 20317.18090516 .00002188 00000 0 93200-4 0 9999 2 42791 97.2839 7.5296 0009743 218.2914 141.7632 15.23968919188286 Robusta 1B 1 42792U 17036AD 20317.40192078 .00002220 00000 0 93892-4 0 9995 2 42792 97.2844 8.0109 0009687 216.9414 143.1158 15.24201677188358 D-SAT 1 42794U 17036AF 20317.32312166 .00000156 00000 0 18967-4 0 9996 2 42794 97.4808 342.5615 0124804 230.8961 128.1108 14.91358925184694 TechnoSat 1 42829U 17042E 20317.38394473 .00000176 00000 0 23033-4 0 9991 2 42829 97.4963 192.0281 0014957 146.3377 213.8795 14.91158196181331 QIKCOM-1 1 42983U 98067NF 20317.27414148 .00007692 00000 0 88853-4 0 9999 2 42983 51.6376 279.6873 0002522 249.4764 110.5959 15.62988217173397 AO-91 1 43017U 17073E 20317.28057519 .00001094 00000 0 90770-4 0 9993 2 43017 97.7155 223.7579 0255011 288.7631 68.6070 14.79136881161019 EcAMSat 1 43019U 98067NG 20317.22824409 .00017276 00000 0 14987-3 0 9995 2 43019 51.6400 259.9709 0002155 227.9252 132.1562 15.69227701255976 PICSAT 1 43132U 18004X 20317.44907693 .00002354 00000 0 97671-4 0 9998 2 43132 97.4345 27.8018 0007939 249.2802 110.7585 15.24833584157607 AO-92 1 43137U 18004AC 20317.45408591 .00001721 00000 0 73021-4 0 9997 2 43137 97.4323 27.5209 0007539 252.3706 107.6708 15.24444969157596 TianYi 2 1 43155U 18008A 20317.46498852 .00001287 00000 0 78728-4 0 9997 2 43155 97.4317 22.6756 0017391 3.2669 356.8672 15.11863922155282 Zhou Enlai 1 43156U 18008B 20317.27401417 .00001383 00000 0 85431-4 0 9994 2 43156 97.4364 22.3290 0014570 4.1812 355.9538 15.11431520155209 TianYi 6 1 43158U 18008D 20317.13954317 .00001131 00000 0 71507-4 0 9993 2 43158 97.4320 21.0704 0013586 3.8878 356.2455 15.10939348155126 S-Net D 1 43186U 18014G 20317.25127689 -.00000178 00000 0 -10508-4 0 9994 2 43186 97.6852 222.6036 0012486 88.6517 271.6135 14.96886864151808 S-Net B 1 43187U 18014H 20317.25113032 -.00000173 00000 0 -10049-4 0 9997 2 43187 97.6850 222.5774 0012490 88.6246 271.6407 14.96886572151807 S-Net A 1 43188U 18014J 20316.98362687 -.00000161 00000 0 -89821-5 0 9991 2 43188 97.6852 222.3500 0012523 89.4521 270.8135 14.96886437151761 S-Net C 1 43189U 18014K 20317.25150076 -.00000182 00000 0 -10812-4 0 9996 2 43189 97.6848 222.5720 0012465 88.5711 271.6938 14.96885525150350 FMN 1 1 43192U 18015A 20317.32211082 .00003803 00000 0 14925-3 0 9993 2 43192 97.4624 86.3314 0014029 290.2786 69.6944 15.26270815154452 Shaonian Xing 1 43199U 18015H 20317.30737642 .00002710 00000 0 10719-3 0 9996 2 43199 97.4415 84.1868 0015186 300.9833 58.9913 15.26254033154512 UBAKUSAT 1 43467U 98067NQ 20317.23900376 .00130733 00000 0 41893-3 0 9991 2 43467 51.6306 235.3956 0003591 142.6897 217.4358 15.90113920143486 EQUISat 1 43552U 98067PA 20317.21769207 .00143133 00000 0 47997-3 0 9999 2 43552 51.6276 243.5899 0001719 132.3239 227.7912 15.89182266133565 UiTMSat 1 1 43589U 98067PD 20317.23094083 .00718535 28679-3 76138-3 0 9993 2 43589 51.6248 234.3473 0005699 173.0891 187.0203 16.09617355129423 Maya 1 1 43590U 98067PE 20317.16048705 .00692689 26453-3 74469-3 0 9991 2 43590 51.6194 234.5410 0005310 173.8947 186.2133 16.09397894129345 Bhutan 1 1 43591U 98067PF 20317.09769695 .00845297 42244-3 78210-3 0 9991 2 43591 51.6251 234.2927 0005681 175.6021 184.5044 16.11680783129341 SiriusSat 1 1 43595U 98067PG 20317.25663080 .00204451 27097-4 55943-3 0 9993 2 43595 51.6221 244.3455 0003959 140.1380 219.9918 15.93642633128401 SiriusSat 2 1 43596U 98067PH 20317.51535189 .00209438 27895-4 57179-3 0 9990 2 43596 51.6213 243.8928 0003967 140.8067 219.3228 15.93677401128432 SurfSat 1 43614U 18070B 20317.27910385 .00004534 00000 0 11319-3 0 9995 2 43614 93.0295 215.8181 0017333 119.5125 240.7861 15.40057291121225 CP-7 DAVE 1 43615U 18070C 20317.26142074 .00004301 00000 0 10806-3 0 9999 2 43615 93.0299 215.7912 0017519 119.4717 240.8288 15.39862340121213 ELFIN-B 1 43616U 18070D 20317.22153225 .00006699 00000 0 15863-3 0 9996 2 43616 93.0256 215.7756 0017740 119.6743 240.6281 15.41627576121270 ELFIN-A 1 43617U 18070E 20317.23354633 .00007248 00000 0 17016-3 0 9997 2 43617 93.0311 216.4200 0017272 116.6072 243.6956 15.41890479121284 STARS-Me Mother 1 43640U 98067PQ 20317.24456318 .00034533 00000 0 27603-3 0 9991 2 43640 51.6330 276.2522 0001902 202.9147 157.1766 15.70755258119919 CubeBel 1 1 43666U 18083E 20317.30033772 .00001564 00000 0 78846-4 0 9995 2 43666 97.4782 342.2441 0014238 199.9360 160.1320 15.18563914113055 Changshagaoxin 1 43669U 18083H 20317.32586403 .00001291 00000 0 67657-4 0 9999 2 43669 97.4669 340.0092 0010396 191.3572 168.7428 15.17530288112950 Ten-Koh 1 43677U 18084G 20317.26749986 .00000256 00000 0 32129-4 0 9995 2 43677 97.8990 74.1154 0016769 35.2852 324.9472 14.90342984110958 PO-101 1 43678U 18084H 20317.32124477 -.00000026 00000 0 31128-5 0 9990 2 43678 97.9020 75.8665 0011081 53.7241 306.5000 14.91669039111068 IRVINE 01 1 43693U 18088D 20317.30819404 .00003778 00000 0 15539-3 0 9992 2 43693 85.0339 339.0995 0019917 105.1640 255.1807 15.23603655111352 QO-100 1 43700U 18090A 20317.07336623 .00000000 00000 0 00000 0 0 9993 2 43700 0.0114 273.7117 0001623 343.9309 206.2073 1.00271082007191 Reaktor Hello World 1 43743U 18096AA 20317.14334831 .00001947 00000 0 74253-4 0 9990 2 43743 97.4091 30.1961 0016804 330.6266 29.4027 15.27798746108940 MinXSS-2 1 43758U 18099A 20317.44610016 .00000103 00000 0 14346-4 0 9994 2 43758 97.6932 26.8700 0016701 57.7427 302.5409 14.95785697106073 AO-95 1 43770U 18099N 20317.15542709 .00000678 00000 0 66939-4 0 9991 2 43770 97.6924 25.8546 0015933 66.8602 293.4296 14.95091944105983 RANGE-B 1 43772U 18099Q 20317.15561810 .00000952 00000 0 91386-4 0 9996 2 43772 97.6997 26.5411 0015320 55.4220 304.8444 14.95316726105984 RANGE-A 1 43773U 18099R 20317.14935888 .00000655 00000 0 64947-4 0 9999 2 43773 97.6862 25.3719 0014742 55.4107 304.8502 14.95043886105973 MOVE-II 1 43780U 18099Y 20317.46289259 .00000798 00000 0 76954-4 0 9995 2 43780 97.6927 26.4749 0014603 63.9040 296.3682 14.95557578106034 SNUSat 2 1 43782U 18099AA 20317.15754549 .00000604 00000 0 59818-4 0 9998 2 43782 97.6920 26.1214 0013964 54.9723 305.2806 14.95351746105991 SnugLite 1 43784U 18099AC 20317.45039559 .00000126 00000 0 16552-4 0 9997 2 43784 97.6883 26.1937 0016232 60.1873 300.0959 14.95456572106052 ITASat 1 1 43786U 18099AE 20317.45404374 .00000112 00000 0 15272-4 0 9993 2 43786 97.6937 26.6730 0016320 59.4654 300.8175 14.95414743106058 EAGLET 1 1 43790U 18099AJ 20317.47535762 .00000754 00000 0 72561-4 0 9992 2 43790 97.6927 27.0138 0014753 64.2200 296.0541 14.95796239105772 ESEO 1 43792U 18099AL 20317.16388053 .00000119 00000 0 15845-4 0 9996 2 43792 97.6900 26.4526 0014700 61.8506 298.4198 14.95644701105784 CSIM 1 43793U 18099AM 20317.15888518 .00001040 00000 0 97188-4 0 9991 2 43793 97.6910 26.5436 0014212 59.9127 300.3501 14.96216769105772 Astrocast 0.1 1 43798U 18099AS 20317.44943776 .00000035 00000 0 82578-5 0 9997 2 43798 97.6927 27.1194 0013340 44.9636 315.2663 14.95949104106076 JO-97 1 43803U 18099AX 20317.45023794 .00000143 00000 0 17995-4 0 9994 2 43803 97.6898 26.4552 0016270 59.6356 300.6471 14.95612519106057 Suomi 100 1 43804U 18099AY 20317.45239225 .00000171 00000 0 20537-4 0 9990 2 43804 97.6895 26.4387 0016336 59.7740 300.5096 14.95595789106064 Al Farabi 2 1 43805U 18099AZ 20317.27981175 .00001095 00000 0 10323-3 0 9996 2 43805 97.6907 26.3987 0016474 60.7403 299.5463 14.95745753106046 PWSat 2 1 43814U 18099BJ 20317.48189423 .00084530 00000 0 35643-2 0 9991 2 43814 97.7936 42.1808 0000340 311.0246 49.0960 15.22958153106152 CHOMPTT 1 43855U 18104G 20317.13070056 .00001903 00000 0 78403-4 0 9992 2 43855 85.0376 77.4729 0015858 222.7489 137.2522 15.23256883106005 ISAT 1 43879U 18111D 20317.28839818 .00001033 00000 0 96214-4 0 9995 2 43879 97.6928 222.2562 0014644 107.7028 252.5794 14.96357258102589 UWE-4 1 43880U 18111E 20317.24447099 .00000343 00000 0 35171-4 0 9997 2 43880 97.6946 222.5630 0013728 107.9520 252.3199 14.96605357102595 Sparrow 1 43881U 18111F 20317.28942928 .00001039 00000 0 96065-4 0 9995 2 43881 97.6948 222.7005 0014038 106.7084 253.5679 14.96645739102609 Lume 1 1 43908U 18111AJ 20317.45473655 .00002007 00000 0 81910-4 0 9999 2 43908 97.2504 212.9173 0020659 344.7919 15.2696 15.25376234104582 FO-98 1 43933U 19003B 20317.09945736 .00001099 00000 0 50322-4 0 9995 2 43933 97.2120 1.0471 0019496 82.6409 277.7043 15.22338105100995 FO-99 1 43937U 19003F 20317.17188765 .00002070 00000 0 85607-4 0 9993 2 43937 97.2084 2.7929 0025334 64.2627 296.1222 15.24772146101141 Delphini 1 1 44030U 98067PW 20317.19690628 .00061806 00000 0 41985-3 0 9995 2 44030 51.6308 281.1577 0001040 21.1772 338.9270 15.74335168101717 MYSat 1 1 44045U 18092F 20317.30121985 .00004671 00000 0 13496-3 0 9992 2 44045 51.6400 44.0014 0011243 137.4541 222.7316 15.37581546098021 AstroCast 0.2 1 44083U 19018F 20317.44210195 .00001157 00000 0 53866-4 0 9992 2 44083 97.4041 16.3129 0013520 20.6843 339.4937 15.21842527089880 AISTechSat 3 1 44103U 19018AB 20317.41826683 .00001301 00000 0 57500-4 0 9997 2 44103 97.3909 16.5520 0014188 33.5650 326.6483 15.23424339089964 AISat 1 1 44104U 19018AC 20317.45297999 .00001412 00000 0 46860-4 0 9994 2 44104 97.4500 27.9552 0058941 48.3347 312.2918 15.31349170090454 Raavana-1 1 44329U 98067QE 20317.22904368 .00023579 00000 0 27345-3 0 9998 2 44329 51.6381 311.6485 0004047 179.3247 180.7753 15.61665256080062 Uguisu 1 44330U 98067QF 20317.25135488 .00023879 00000 0 27822-3 0 9995 2 44330 51.6358 311.7576 0004058 179.1789 180.9212 15.61535939080045 NepaliSat-1 1 44331U 98067QG 20317.28413261 .00024333 00000 0 28187-3 0 9998 2 44331 51.6358 311.2287 0003990 183.4753 176.6213 15.61675369080060 Prox-1 1 44339U 19036A 20317.26278928 .00001099 00000 0 21037-3 0 9993 2 44339 23.9998 261.6995 0010187 327.8005 32.1864 14.53206876073630 Oculus-ASR 1 44348U 19036K 20317.19884797 .00018526 00000 0 26963-3 0 9998 2 44348 28.5121 132.4862 0356683 86.8408 277.2922 15.05305611076062 Armadillo 1 44352U 19036P 20317.15602512 .00029578 00000 0 42176-3 0 9995 2 44352 28.5275 123.8821 0339224 99.6188 264.2892 15.09342170076095 NO-104 1 44354U 19036R 20316.56147452 .00018502 00000 0 26409-3 0 9994 2 44354 28.5267 132.5831 0353023 85.2013 278.8789 15.06446686076008 NO-103 1 44355U 19036S 20317.11237210 .00043055 00000 0 56789-3 0 9994 2 44355 28.5264 110.6259 0320286 120.7963 242.4562 15.14784332076278 CP9 1 44360U 19036X 20317.05981817 .00076505 -47583-5 79663-3 0 9998 2 44360 28.5107 83.5403 0287250 165.9961 194.8799 15.25894751076418 Move-IIb 1 44398U 19038N 20317.15191262 .00002246 00000 0 13115-3 0 9996 2 44398 97.5550 276.6752 0024538 342.8969 17.1432 15.12720456074900 SONATE 1 44400U 19038Q 20317.16450748 .00001097 00000 0 67080-4 0 9992 2 44400 97.5602 276.6832 0024635 341.4998 18.5335 15.12128739074897 BeeSat 9 1 44412U 19038AC 20317.14113973 .00001601 00000 0 95059-4 0 9997 2 44412 97.5583 276.8006 0022280 347.2478 12.8186 15.12577504074590 JAISAT-1 1 44419U 19038F 20317.18036446 .00001657 00000 0 97046-4 0 9996 2 44419 97.5587 277.2165 0021065 346.1762 13.8890 15.13062073074938 LightSail-2 1 44420U 19036AC 20317.19182325 .00008313 00000 0 17573-2 0 9996 2 44420 24.0063 253.3038 0008840 310.0568 49.9148 14.57217161071860 Taurus 1 1 44530U 19059C 20317.23015678 .00000020 00000 0 18488-4 0 9999 2 44530 98.5635 39.7086 0015102 81.4491 278.8410 14.45743638061690 Duchifat 3 1 44854U 19089C 20317.29290484 .00000633 00000 0 57377-4 0 9997 2 44854 36.9661 304.5844 0008396 184.3184 175.7486 14.99191600050554 OPS-SAT 1 44878U 19092F 20317.06063900 .00001778 00000 0 96437-4 0 9994 2 44878 97.4698 137.8921 0013405 199.3176 160.7551 15.15784532049892 TO-108 1 44881U 19093C 20316.57194759 .00000060 00000 0 14476-4 0 9997 2 44881 97.9470 31.5335 0013630 280.8121 79.1557 14.81409186048477 FloripaSat 1 1 44885U 19093G 20317.45056534 .00000367 00000 0 52905-4 0 9996 2 44885 97.9473 32.6991 0013365 288.3164 71.6595 14.82115569048625 RS-44 1 44909U 19096E 20317.27945483 .00000006 00000 0 -14675-4 0 9999 2 44909 82.5214 257.0758 0216313 240.7875 117.1438 12.79708260041094 SwampSat-2 1 45115U 19071E 20317.41596897 .00024294 00000 0 62825-3 0 9992 2 45115 51.6416 4.1991 0010431 237.3961 122.6016 15.38905105043872 HO-107 1 45119U 19071J 20317.42838418 .00003646 00000 0 11963-3 0 9990 2 45119 51.6438 7.9662 0011584 225.9054 134.0976 15.34185994043832 Phoenix 1 45258U 98067RB 20317.33595205 .00008500 00000 0 14417-3 0 9991 2 45258 51.6413 331.8615 0005610 161.7517 198.3675 15.52380526041431 AztechSat-1 1 45261U 98067RE 20317.28020266 .00017044 00000 0 25774-3 0 9990 2 45261 51.6406 330.0012 0006215 179.4263 180.6736 15.54791205041484 QARMAN 1 45263U 98067RG 20317.33172629 .00014725 00000 0 23332-3 0 9990 2 45263 51.6410 331.0919 0006063 176.0055 184.0985 15.53627824041502 Quetzal 1 1 45598U 98067RL 20317.30139945 .00012631 00000 0 20926-3 0 9992 2 45598 51.6420 333.1432 0002016 294.4930 65.5850 15.52547716030746 BY70-2 1 45857U 20042B 20317.48062303 .00001399 00000 0 20834-3 0 9997 2 45857 98.0039 29.3741 0011649 186.5495 173.5564 14.76429586019525 UPMSat 2 1 46276U 20061E 20317.17251789 .00000708 00000 0 40146-4 0 9990 2 46276 97.4574 29.0675 0002685 65.9833 294.1680 15.16115190010615 AmicalSat 1 46287U 20061R 20317.45497827 .00000723 00000 0 48340-4 0 9999 2 46287 97.5126 29.2456 0004173 112.4504 247.7167 15.10031095010593 /EX
